Location: Gull Harbor
(47.1000°N, 122.9000°W)
Time: 00:14:00
(UTC-07:00)

BlueWalker 3 - Pass Details

Date: 02 February 2023
Orbit: 497 x 515 km, 53.2° (Epoch: 23 March)

Event Time Altitude Azimuth Distance (km) Brightness Sun altitude
Rises 18:41:43 0° 281° (W) 2,599 7.0 -14.8°
Reaches altitude 10° 18:44:03 10° 291° (WNW) 1,719 5.6 -15.2°
Maximum altitude 18:47:36 33° 357° (N) 879 3.1 -15.8°
Enters shadow 18:49:08 24° 39° (NE) 1,090 3.2 -16.1°
